FW7360 Weather Reports


Display with metric or nautical units.
time (UTC)temp
F
wind
direction
speed
MPH
gust
MPH
rain 1hr
in
rain 24hr
in
rain mn
in
humidity
%
barometer
mb
20260507165830 63 185 15.0 21.0 0.00 0.00 0.00 50 1015.3
20260507165326 63 227 7.0 13.0 0.00 0.00 0.00 53 1014.9
20260507164822 63 154 9.0 14.0 0.00 0.00 0.00 52 1015.2
20260507164320 62 179 8.0 10.0 0.00 0.00 0.00 53 1015.2
20260507163817 62 219 7.0 16.0 0.00 0.00 0.00 53 1015.4
20260507163314 62 220 8.0 11.0 0.00 0.00 0.00 55 1015.7
20260507162810 62 221 16.0 18.0 0.00 0.00 0.00 52 1015.4
20260507162307 61 225 9.0 17.0 0.00 0.00 0.00 54 1015.4
20260507161803 62 140 9.0 13.0 0.00 0.00 0.00 54 1015.6
20260507161300 61 259 7.0 10.0 0.00 0.00 0.00 56 1015.8
20260507160756 61 214 9.0 13.0 0.00 0.00 0.00 55 1015.9
20260507160252 61 197 11.0 18.0 0.00 0.00 0.00 54 1015.8
20260507155748 61 189 10.0 15.0 0.00 0.00 0.00 55 1016.0
20260507155244 61 182 5.0 13.0 0.00 0.00 0.00 55 1015.9
20260507154741 60 217 7.0 18.0 0.00 0.00 0.00 57 1016.1
20260507154239 59 185 9.0 14.0 0.00 0.00 0.00 57 1015.9
20260507153735 60 177 9.0 13.0 0.00 0.00 0.00 57 1016.0
20260507153232 61 228 5.0 10.0 0.00 0.00 0.00 58 1015.9
20260507152728 60 241 7.0 15.0 0.00 0.00 0.00 58 1016.1
20260507152225 60 203 5.0 13.0 0.00 0.00 0.00 61 1016.1
20260507151721 59 247 5.0 11.0 0.00 0.00 0.00 61 1016.0
20260507151217 59 215 11.0 15.0 0.00 0.00 0.00 59 1016.2
20260507150714 59 202 8.0 11.0 0.00 0.00 0.00 60 1016.3
20260507150211 58 222 10.0 17.0 0.00 0.00 0.00 61 1016.3
20260507145707 57 199 4.0 15.0 0.00 0.00 0.00 63 1016.4
20260507145204 58 208 6.0 11.0 0.00 0.00 0.00 62 1016.4
20260507144700 57 220 5.0 13.0 0.00 0.00 0.00 66 1016.4
20260507144159 57 205 5.0 11.0 0.00 0.00 0.00 63 1016.6
20260507143655 57 228 5.0 11.0 0.00 0.00 0.00 66 1016.8
20260507143152 56 225 3.0 10.0 0.00 0.00 0.00 66 1016.7
20260507142647 56 249 11.0 14.0 0.00 0.00 0.00 65 1016.8
20260507142145 55 207 3.0 8.0 0.00 0.00 0.00 68 1016.6
20260507141641 55 261 6.0 10.0 0.00 0.00 0.00 69 1016.7
20260507141138 55 212 4.0 11.0 0.00 0.00 0.00 69 1016.7
20260507140634 54 211 7.0 9.0 0.00 0.00 0.00 69 1017.1
20260507140132 54 232 7.0 8.0 0.00 0.00 0.00 69 1016.8
20260507135629 53 237 6.0 8.0 0.00 0.00 0.00 70 1016.8
20260507135126 53 228 10.0 14.0 0.00 0.00 0.00 69 1016.6
20260507134622 53 210 3.0 7.0 0.00 0.00 0.00 72 1016.8
20260507134118 52 224 4.0 7.0 0.00 0.00 0.00 72 1016.9
20260507133614 52 219 6.0 9.0 0.00 0.00 0.00 73 1016.9
20260507133112 52 209 7.0 8.0 0.00 0.00 0.00 72 1016.8
20260507132609 52 199 5.0 8.0 0.00 0.00 0.00 73 1017.0
20260507132105 51 246 5.0 10.0 0.00 0.00 0.00 74 1016.7
20260507131602 51 223 4.0 7.0 0.00 0.00 0.00 75 1017.1
20260507131100 51 217 8.0 10.0 0.00 0.00 0.00 76 1016.8
20260507130556 50 228 5.0 6.0 0.00 0.00 0.00 78 1017.1
20260507130054 50 203 3.0 9.0 0.00 0.00 0.00 78 1017.0
20260507125553 50 215 6.0 9.0 0.00 0.00 0.00 77 1016.9
20260507125050 49 217 2.0 6.0 0.00 0.00 0.00 79 1016.7
20260507124546 49 219 1.0 3.0 0.00 0.00 0.00 80 1016.8
20260507124044 49 153 3.0 5.0 0.00 0.00 0.00 80 1016.9
20260507123542 48 233 4.0 5.0 0.00 0.00 0.00 81 1017.1
20260507123038 48 295 3.0 5.0 0.00 0.00 0.00 82 1017.0
20260507122534 48 178 3.0 5.0 0.00 0.00 0.00 82 1016.9
20260507122030 47 164 2.0 5.0 0.00 0.00 0.00 84 1017.0
20260507121525 47 225 2.0 3.0 0.00 0.00 0.00 83 1017.0
20260507121021 46 240 2.0 3.0 0.00 0.00 0.00 84 1017.0
20260507120518 46 207 1.0 2.0 0.00 0.00 0.00 85 1016.9
20260507120015 45 275 1.0 1.0 0.00 0.00 0.00 86 1017.1
20260507115511 44 233 1.0 2.0 0.00 0.00 0.00 86 1017.0
20260507115007 44 239 1.0 1.0 0.00 0.00 0.00 87 1017.1
20260507114503 44 240 0.0 1.0 0.00 0.00 0.00 87 1016.8
20260507114000 44 234 1.0 2.0 0.00 0.00 0.00 88 1016.9
20260507113457 43 238 0.0 1.0 0.00 0.00 0.00 88 1017.0
20260507112955 43 252 1.0 3.0 0.00 0.00 0.00 88 1017.1
20260507112452 43 226 2.0 2.0 0.00 0.00 0.00 88 1017.0
20260507111949 43 234 1.0 2.0 0.00 0.00 0.00 88 1016.9
20260507111446 43 243 1.0 2.0 0.00 0.00 0.00 88 1016.9
20260507110942 43 244 1.0 2.0 0.00 0.00 0.00 88 1016.9
20260507110439 43 246 1.0 2.0 0.00 0.00 0.00 87 1016.9
20260507105935 43 245 0.0 2.0 0.00 0.00 0.00 87 1017.0
20260507105432 43 244 1.0 2.0 0.00 0.00 0.00 87 1017.0
20260507104929 43 232 1.0 1.0 0.00 0.00 0.00 88 1016.7
20260507104426 43 253 1.0 2.0 0.00 0.00 0.00 89 1017.0
20260507103926 42 231 2.0 2.0 0.00 0.00 0.00 90 1017.0
20260507103424 42 216 1.0 2.0 0.00 0.00 0.00 90 1016.9
20260507102920 42 229 1.0 2.0 0.00 0.00 0.00 91 1016.8
20260507102417 42 233 1.0 1.0 0.00 0.00 0.00 92 1016.8
20260507101913 41 238 0.0 1.0 0.00 0.00 0.00 92 1016.9
20260507101409 42 238 1.0 1.0 0.00 0.00 0.00 92 1017.0
20260507100905 42 237 1.0 1.0 0.00 0.00 0.00 91 1016.9
20260507100403 42 237 1.0 1.0 0.00 0.00 0.00 91 1017.0
20260507095901 42 238 1.0 1.0 0.00 0.00 0.00 91 1017.1
20260507095357 42 238 1.0 1.0 0.00 0.00 0.00 90 1017.3
20260507094855 42 238 0.0 1.0 0.00 0.00 0.00 91 1017.2
20260507094351 42 236 1.0 1.0 0.00 0.00 0.00 91 1017.1
20260507093848 42 242 1.0 1.0 0.00 0.00 0.00 90 1017.2
20260507093346 42 242 1.0 1.0 0.00 0.00 0.00 90 1017.0
20260507092844 42 242 0.0 1.0 0.00 0.00 0.00 90 1017.1
20260507092340 42 242 0.0 1.0 0.00 0.00 0.00 89 1017.1
20260507091837 42 242 0.0 1.0 0.00 0.00 0.00 89 1017.1
20260507091333 43 242 0.0 0.0 0.00 0.00 0.00 89 1017.3
20260507090829 42 233 1.0 1.0 0.00 0.00 0.00 90 1017.3
20260507090325 42 240 0.0 1.0 0.00 0.00 0.00 89 1017.3
20260507085823 42 240 0.0 1.0 0.00 0.00 0.00 89 1017.4
20260507085319 43 242 1.0 1.0 0.00 0.00 0.00 89 1017.2
20260507084817 43 239 1.0 1.0 0.00 0.00 0.00 88 1017.4
20260507084313 43 241 1.0 1.0 0.00 0.00 0.00 88 1017.3
20260507083810 43 241 0.0 1.0 0.00 0.00 0.00 87 1017.3
20260507083307 43 222 1.0 2.0 0.00 0.00 0.00 87 1017.4
20260507082803 43 240 1.0 1.0 0.00 0.00 0.00 88 1017.4
20260507082259 43 237 1.0 2.0 0.00 0.00 0.00 88 1017.5
20260507081756 43 227 1.0 2.0 0.00 0.00 0.00 89 1017.6
20260507081252 43 232 1.0 1.0 0.00 0.00 0.00 89 1017.4
20260507080749 43 237 1.0 1.0 0.00 0.00 0.00 89 1017.3
20260507080245 43 242 1.0 1.0 0.00 0.00 0.00 88 1017.6
20260507075740 43 243 1.0 1.0 0.00 0.00 0.00 87 1017.4
20260507075237 44 236 1.0 2.0 0.00 0.00 0.00 85 1017.6
20260507074733 44 241 2.0 2.0 0.00 0.00 0.00 85 1017.6
20260507074232 44 240 1.0 1.0 0.00 0.00 0.00 85 1017.5
20260507073728 45 241 1.0 1.0 0.00 0.00 0.00 82 1017.6
20260507073224 45 237 1.0 1.0 0.00 0.00 0.00 82 1017.6
20260507072722 45 239 1.0 2.0 0.00 0.00 0.00 81 1017.6
20260507072219 45 241 1.0 2.0 0.00 0.00 0.00 81 1017.8
20260507071717 45 226 1.0 2.0 0.00 0.00 0.00 81 1017.8
20260507071213 46 226 1.0 2.0 0.00 0.00 0.00 80 1017.7
20260507070710 46 238 1.0 3.0 0.00 0.00 0.00 80 1017.7
20260507070207 46 203 1.0 3.0 0.00 0.00 0.00 80 1017.9
20260507065703 46 235 1.0 2.0 0.00 0.00 0.00 80 1017.9
20260507065200 46 240 1.0 2.0 0.00 0.00 0.00 80 1017.8
20260507064657 45 233 1.0 2.0 0.00 0.00 0.00 80 1017.7
20260507064156 46 235 1.0 1.0 0.00 0.00 0.00 81 1018.2
20260507063653 46 244 1.0 2.0 0.00 0.00 0.00 79 1018.1
20260507063150 46 224 1.0 1.0 0.00 0.00 0.00 79 1018.1
20260507062647 46 234 1.0 2.0 0.00 0.00 0.00 78 1018.2
20260507062145 46 233 1.0 1.0 0.00 0.00 0.00 78 1018.1
20260507061642 47 234 1.0 2.0 0.00 0.00 0.00 76 1018.1
20260507061140 47 235 1.0 1.0 0.00 0.00 0.00 77 1018.2
20260507060638 47 237 1.0 1.0 0.00 0.00 0.00 75 1018.3
20260507060133 48 241 1.0 1.0 0.00 0.00 0.00 73 1018.2
20260507055629 48 243 1.0 2.0 0.00 0.00 0.00 71 1018.2
20260507055125 49 238 1.0 2.0 0.00 0.00 0.00 71 1018.2
20260507054621 49 237 1.0 2.0 0.00 0.00 0.00 70 1018.2
20260507054119 49 243 1.0 3.0 0.00 0.00 0.00 70 1018.3
20260507053617 49 229 2.0 3.0 0.00 0.00 0.00 70 1018.5
20260507053115 50 219 1.0 3.0 0.00 0.00 0.00 68 1018.6
20260507052613 50 233 2.0 2.0 0.00 0.00 0.00 68 1018.5
20260507052109 50 203 2.0 3.0 0.00 0.00 0.00 66 1018.5
20260507051607 50 203 2.0 2.0 0.00 0.00 0.00 66 1018.2
20260507051103 50 222 2.0 3.0 0.00 0.00 0.00 65 1018.3
20260507050600 50 226 1.0 2.0 0.00 0.00 0.00 67 1018.6
20260507050056 50 197 2.0 5.0 0.00 0.00 0.00 64 1018.5
20260507045553 50 248 1.0 2.0 0.00 0.00 0.00 65 1018.5
20260507045051 50 231 1.0 2.0 0.00 0.00 0.00 64 1018.5
20260507044547 50 233 1.0 2.0 0.00 0.00 0.00 64 1018.6
20260507044044 50 232 2.0 2.0 0.00 0.00 0.00 64 1018.5
20260507043540 50 229 2.0 2.0 0.00 0.00 0.00 63 1018.3
20260507043038 50 222 2.0 3.0 0.00 0.00 0.00 63 1018.3
20260507042533 50 233 1.0 1.0 0.00 0.00 0.00 65 1018.3
20260507042029 50 253 0.0 1.0 0.00 0.00 0.00 65 1018.3
20260507041526 50 250 2.0 2.0 0.00 0.00 0.00 65 1018.6
20260507041023 49 236 1.0 2.0 0.00 0.00 0.00 67 1018.5
20260507040519 47 243 1.0 1.0 0.00 0.00 0.00 70 1018.6
20260507040015 45 257 0.0 1.0 0.00 0.00 0.00 81 1018.3
20260507035512 45 259 0.0 0.0 0.00 0.00 0.00 87 1018.3
20260507035008 45 259 0.0 0.0 0.00 0.00 0.00 85 1018.1
20260507034505 45 259 0.0 0.0 0.00 0.00 0.00 84 1018.5
20260507034003 45 259 0.0 0.0 0.00 0.00 0.00 83 1018.2
20260507033501 45 259 0.0 0.0 0.00 0.00 0.00 83 1018.6
20260507032958 44 259 0.0 0.0 0.00 0.00 0.00 82 1018.7
20260507032454 44 259 0.0 0.0 0.00 0.00 0.00 83 1018.6
20260507031950 45 259 0.0 1.0 0.00 0.00 0.00 84 1018.6
20260507031447 44 259 0.0 0.0 0.00 0.00 0.00 80 1018.3
20260507030944 45 260 0.0 0.0 0.00 0.00 0.00 80 1018.5
20260507030441 44 260 0.0 0.0 0.00 0.00 0.00 80 1018.5
20260507025938 44 226 0.0 0.0 0.00 0.00 0.00 79 1018.7
20260507025436 44 223 0.0 0.0 0.00 0.00 0.00 75 1018.5
20260507024933 44 221 0.0 0.0 0.00 0.00 0.00 77 1018.0
20260507024431 44 260 0.0 1.0 0.00 0.00 0.00 76 1018.2
20260507023926 44 259 0.0 0.0 0.00 0.00 0.00 78 1018.1
20260507023423 44 259 0.0 0.0 0.00 0.00 0.00 77 1018.1
20260507022920 45 259 0.0 0.0 0.00 0.00 0.00 76 1018.1
20260507022417 46 259 0.0 0.0 0.00 0.00 0.00 74 1018.1
20260507021913 46 259 0.0 1.0 0.00 0.00 0.00 73 1018.1
20260507021408 47 255 1.0 1.0 0.00 0.00 0.00 76 1017.8
20260507020906 47 255 0.0 1.0 0.00 0.00 0.00 74 1018.1
20260507020403 47 259 0.0 0.0 0.00 0.00 0.00 66 1018.1
20260507015900 48 249 0.0 0.0 0.00 0.00 0.00 65 1017.9
20260507015358 49 259 0.0 0.0 0.00 0.00 0.00 61 1017.9
20260507014854 50 259 0.0 1.0 0.00 0.00 0.00 60 1017.6
20260507014350 51 255 1.0 2.0 0.00 0.00 0.00 60 1017.8
20260507013847 51 238 1.0 2.0 0.00 0.00 0.00 54 1017.8
20260507013344 51 270 0.0 1.0 0.00 0.00 0.00 55 1017.8
20260507012842 51 277 0.0 0.0 0.00 0.00 0.00 51 1017.5
20260507012337 53 277 0.0 0.0 0.00 0.00 0.00 53 1017.6
20260507011834 54 256 1.0 1.0 0.00 0.00 0.00 47 1017.7
20260507011331 54 233 2.0 2.0 0.00 0.00 0.00 48 1017.6
20260507010826 55 232 1.0 3.0 0.00 0.00 0.00 44 1017.7
20260507010321 55 243 1.0 1.0 0.00 0.00 0.00 42 1017.6
20260507005818 57 260 1.0 1.0 0.00 0.00 0.00 41 1017.7
20260507005316 57 271 0.0 1.0 0.00 0.00 0.00 39 1017.8
20260507004812 58 264 0.0 2.0 0.00 0.00 0.00 38 1017.7
20260507004310 59 276 1.0 2.0 0.00 0.00 0.00 37 1017.5
20260507003807 59 280 0.0 3.0 0.00 0.00 0.00 38 1017.5
20260507003302 59 278 3.0 3.0 0.00 0.00 0.00 36 1017.4
20260507002757 59 260 1.0 3.0 0.00 0.00 0.00 36 1017.6
20260507002254 59 296 1.0 3.0 0.00 0.00 0.00 38 1017.5
20260507001751 60 314 4.0 5.0 0.00 0.00 0.00 37 1017.6
20260507001248 60 288 2.0 3.0 0.00 0.00 0.00 36 1017.6
20260507000744 61 325 1.0 2.0 0.00 0.00 0.00 35 1017.7
20260507000240 60 305 0.0 2.0 0.00 0.00 0.00 35 1017.7
20260506235737 60 292 2.0 3.0 0.00 0.00 0.00 34 1017.6
20260506235232 60 319 3.0 5.0 0.00 0.00 0.00 35 1017.6
20260506234730 60 242 3.0 6.0 0.00 0.00 0.00 33 1017.6
20260506234227 61 295 3.0 5.0 0.00 0.00 0.00 36 1017.5
20260506233724 62 296 2.0 2.0 0.00 0.00 0.00 33 1017.6
20260506233220 60 304 0.0 3.0 0.00 0.00 0.00 34 1017.7
20260506232717 60 281 1.0 5.0 0.00 0.00 0.00 36 1017.9
20260506232212 59 304 3.0 6.0 0.00 0.00 0.00 36 1017.9
20260506231710 59 300 4.0 8.0 0.00 0.00 0.00 36 1017.6
20260506231208 60 332 5.0 7.0 0.00 0.00 0.00 36 1017.8
20260506230704 61 301 2.0 5.0 0.00 0.00 0.00 35 1017.8
20260506230201 60 296 2.0 2.0 0.00 0.00 0.00 35 1017.8
20260506225658 60 4 3.0 6.0 0.00 0.00 0.00 36 1017.9
20260506225155 60 359 4.0 9.0 0.00 0.00 0.00 36 1017.8
20260506224651 61 312 5.0 6.0 0.00 0.00 0.00 36 1017.7
20260506224148 61 293 5.0 6.0 0.00 0.00 0.00 35 1017.7
20260506223645 60 291 2.0 5.0 0.00 0.00 0.00 38 1017.9
20260506223140 61 23 5.0 10.0 0.00 0.00 0.00 36 1017.6
20260506222637 61 3 4.0 6.0 0.00 0.00 0.00 39 1017.8
20260506222133 62 271 3.0 7.0 0.00 0.00 0.00 35 1017.9
20260506221631 62 275 2.0 3.0 0.00 0.00 0.00 35 1017.7
20260506221129 61 301 2.0 5.0 0.00 0.00 0.00 35 1018.0
20260506220625 60 268 4.0 9.0 0.00 0.00 0.00 35 1017.9
20260506220121 60 340 7.0 11.0 0.00 0.00 0.00 34 1017.9
20260506215618 59 296 4.0 6.0 0.00 0.00 0.00 36 1018.0
20260506215113 59 309 2.0 6.0 0.00 0.00 0.00 35 1018.1
20260506214610 60 317 6.0 8.0 0.00 0.00 0.00 36 1018.1
20260506214108 62 337 4.0 5.0 0.00 0.00 0.00 36 1018.3
20260506213606 59 204 1.0 3.0 0.00 0.00 0.00 35 1018.3
20260506213102 59 286 3.0 5.0 0.00 0.00 0.00 36 1018.0
20260506212600 60 283 1.0 5.0 0.00 0.00 0.00 37 1018.3
20260506212054 59 328 2.0 8.0 0.00 0.00 0.00 35 1018.7
20260506211550 59 303 4.0 6.0 0.00 0.00 0.00 34 1018.7
20260506211048 60 343 6.0 10.0 0.00 0.00 0.00 40 1018.6
20260506210544 59 242 3.0 6.0 0.00 0.00 0.00 35 1018.7
20260506210041 58 309 2.0 6.0 0.00 0.00 0.00 36 1018.9
20260506205538 59 305 7.0 10.0 0.00 0.00 0.00 39 1018.9
20260506205033 59 269 3.0 11.0 0.00 0.00 0.00 35 1018.8
20260506204531 59 276 1.0 5.0 0.00 0.00 0.00 35 1019.0
20260506204028 59 322 5.0 8.0 0.00 0.00 0.00 37 1019.0
20260506203527 61 8 12.0 14.0 0.00 0.00 0.00 34 1018.9
20260506203022 60 270 3.0 3.0 0.00 0.00 0.00 39 1019.1
20260506202520 60 316 6.0 9.0 0.00 0.00 0.00 35 1018.9
20260506202016 60 248 4.0 13.0 0.00 0.00 0.00 37 1019.2
20260506201514 59 312 5.0 6.0 0.00 0.00 0.00 35 1019.4
20260506201010 60 345 7.0 11.0 0.00 0.00 0.00 36 1019.5
20260506200506 59 278 1.0 10.0 0.00 0.00 0.00 38 1019.5
20260506200003 59 285 4.0 6.0 0.00 0.00 0.00 34 1019.5
20260506195501 58 264 2.0 7.0 0.00 0.00 0.00 35 1019.7
20260506194956 59 341 10.0 14.0 0.00 0.00 0.00 36 1019.4
20260506194454 59 1 4.0 6.0 0.00 0.00 0.00 40 1019.4
20260506193950 58 272 4.0 5.0 0.00 0.00 0.00 37 1019.7
20260506193448 59 265 4.0 7.0 0.00 0.00 0.00 37 1019.6
20260506192944 59 275 3.0 6.0 0.00 0.00 0.00 37 1019.5
20260506192441 58 325 3.0 5.0 0.00 0.00 0.00 38 1019.7
20260506191938 58 344 3.0 6.0 0.00 0.00 0.00 38 1019.6
20260506191435 58 206 3.0 7.0 0.00 0.00 0.00 40 1019.6
20260506190931 58 205 4.0 8.0 0.00 0.00 0.00 36 1019.6
20260506190428 58 317 4.0 5.0 0.00 0.00 0.00 36 1019.7
20260506185925 58 336 7.0 13.0 0.00 0.00 0.00 38 1019.8
20260506185422 58 27 3.0 3.0 0.00 0.00 0.00 36 1019.7
20260506184919 57 271 4.0 9.0 0.00 0.00 0.00 41 1019.9
20260506184416 57 330 6.0 11.0 0.00 0.00 0.00 38 1019.5
20260506183913 58 243 4.0 6.0 0.00 0.00 0.00 36 1020.0
20260506183408 57 292 4.0 10.0 0.00 0.00 0.00 37 1019.9
20260506182906 58 348 7.0 9.0 0.00 0.00 0.00 38 1019.7
20260506182403 58 327 5.0 9.0 0.00 0.00 0.00 36 1020.0
20260506181900 57 295 4.0 7.0 0.00 0.00 0.00 40 1020.1
20260506181358 58 282 6.0 9.0 0.00 0.00 0.00 34 1020.0
20260506180855 57 353 6.0 8.0 0.00 0.00 0.00 38 1020.1
20260506180351 57 354 5.0 10.0 0.00 0.00 0.00 37 1019.8
20260506175848 57 42 4.0 9.0 0.00 0.00 0.00 38 1020.1
20260506175344 57 6 9.0 10.0 0.00 0.00 0.00 35 1020.1
20260506174841 57 288 4.0 7.0 0.00 0.00 0.00 40 1019.9
20260506174339 56 306 3.0 7.0 0.00 0.00 0.00 38 1020.3
20260506173836 57 321 5.0 7.0 0.00 0.00 0.00 40 1020.4
20260506173333 57 321 6.0 10.0 0.00 0.00 0.00 37 1020.5
20260506172830 56 23 4.0 8.0 0.00 0.00 0.00 39 1020.5
20260506172326 55 261 3.0 5.0 0.00 0.00 0.00 38 1020.6
20260506171818 57 313 4.0 8.0 0.00 0.00 0.00 38 1020.3
20260506171315 55 357 5.0 10.0 0.00 0.00 0.00 40 1020.2
20260506170813 55 28 3.0 8.0 0.00 0.00 0.00 40 1020.3
20260506170308 56 7 8.0 9.0 0.00 0.00 0.00 38 1020.3